Weather in Pravokhettinsky

Russia / Yamalo-Nenets Autonomous Okrug     65°26′57″N   73°31′54″E
temp.,
°C
wind,
m/s
gust,
m/s
humid.,
%
clouds,
%
prec.,
mm/h
press.,
hPa
HPBL,
m
27 february, sat
sat2723:00−24wnw129992 0.1 102320
02:00−27wnw1110084 0.1 102319
05:00−27wnw2210088 0.1 102419
08:00−27nw119996 0.1 102319
11:00−24wnw119490 0.1 1024122
14:00−23wnw009194 0.0 1024236
17:00−27wsw1110093 0.0 102519
20:00−28sse1210013 0.0 102519
28 february, sun
sun2823:00−28sse3310016 0.0 102519
02:00−28s3310052 0.0 102519
05:00−28sse3410068 0.0 102521
08:00−28sse449856 0.0 102533
11:00−24s469533 0.0 1025212
14:00−22s469356 0.0 1025251
17:00−25s459428 0.0 102540
20:00−27s55950 0.0 102448
1 march, mon
mon123:00−28s55951 0.0 102459
02:00−28s56941 0.0 102460
05:00−29s559415 0.0 102355
08:00−28s579490 0.0 102294
11:00−24s699280 0.0 1021258
14:00−22s699194 0.0 1020315
17:00−24s699491 0.0 1019131
20:00−26s7119317 0.0 1018139
2 march, tue
tue223:00−26s611919 0.0 1017157
02:00−27s7128910 0.0 1016167
05:00−26s8149050 0.0 1015211
08:00−25s91489100 0.0 1014251
11:00−22s91587100 0.0 1014347
14:00−20s101484100 0.0 1013414
17:00−21s81487100 0.0 1013324
20:00−22s101687100 0.0 1012283
3 march, wed
wed323:00−23s91589100 0.0 1012265
02:00−24s81394100 0.0 1012247
05:00−23sse81395100 0.0 1012247
08:00−23sse91495100 0.0 1011263
11:00−20s101494100 0.0 1011369
14:00−18s101492100 0.0 1011451
17:00−19sse91593100 0.0 1010345
20:00−21sse91594100 0.0 1010296